Weather History for KHCD - March, 2013

Change the Weather History Date:

Sunday, March 31, 2013

  Actual Average Record
Temperature  
Mean Temperature 27 °F -  
Max Temperature 33 °F 49 °F 76 °F (1968)
Min Temperature 19 °F 27 °F -2 °F (1969)
Degree Days  
Heating Degree Days 38    
Moisture  
Dew Point 24 °F    
Average Humidity 78    
Maximum Humidity 100    
Minimum Humidity 56    
Precipitation  
Precipitation 0.00 in - - ()
Sea Level Pressure  
Sea Level Pressure 29.93 in    
Wind  
Wind Speed 16 mph (WNW)    
Max Wind Speed 26 mph    
Max Gust Speed 36 mph    
Visibility 8 miles    
Events      
Averages and records for this station are not official NWS values.
T = Trace of Precipitation, MM = Missing Value Source: NWS Daily Summary

Daily Weather History Graph

Daily Weather History Graph

Search for Another Location

Airport or City:

Trip Planner

Search our weather history database for the weather conditions in past years. The results will help you decide how hot, cold, wet, or windy it might be!

Date:

Astronomy

Mar. 31, 2013 Rise Set
Actual Time 6:59 AM CDT 7:44 PM CDT
Civil Twilight 6:30 AM CDT 8:13 PM CDT
Nautical Twilight 5:54 AM CDT 8:49 PM CDT
Astronomical Twilight 5:18 AM CDT 9:25 PM CDT
Moon 12:01 AM CDT (3/31) 9:37 AM CDT (3/31)
Length of Visible Light 13h 43m
Length of Day
12h 44m
Waning Gibbous, 77% of the Moon is Illuminated
Mar 31
Waning Gibbous
Apr 2
Last Quarter
Apr 10
New
Apr 18
First Quarter
Apr 25
Full

Hourly Weather History & Observations

Time (CDT) Temp. Windchill Dew Point Humidity Pressure Visibility Wind Dir Wind Speed Gust Speed Precip Events Conditions
12:14 AM 30.9 °F 22.8 °F 29.8 °F 96% 29.89 in 3.0 mi WNW 9.2 mph - N/A   Clear
12:34 AM 30.7 °F 22.0 °F 29.8 °F 96% 29.89 in 3.0 mi West 10.4 mph - N/A   Scattered Clouds
12:54 AM 31.3 °F 21.6 °F 30.7 °F 98% 29.89 in 2.5 mi WNW 12.7 mph - N/A   Overcast
1:14 AM 31.6 °F 22.1 °F 31.1 °F 98% 29.89 in 2.5 mi WNW 12.7 mph 18.4 mph N/A   Overcast
1:33 AM 31.6 °F 22.6 °F 31.1 °F 98% 29.88 in 2.5 mi West 11.5 mph - N/A   Overcast
1:54 AM 31.6 °F 23.1 °F 31.5 °F 99% 29.88 in 2.0 mi West 10.4 mph - N/A   Overcast
2:13 AM 31.6 °F 21.6 °F 31.3 °F 99% 29.88 in 1.8 mi West 13.8 mph - N/A   Overcast
2:34 AM 31.6 °F 22.1 °F 31.6 °F 100% 29.88 in 1.0 mi West 12.7 mph - N/A   Overcast
2:54 AM 31.6 °F 21.6 °F 31.8 °F 100% 29.87 in 0.8 mi West 13.8 mph - N/A   Overcast
3:14 AM 32.0 °F 23.6 °F 32.0 °F 100% 29.87 in 1.0 mi West 10.4 mph - N/A   Overcast
3:33 AM 32.0 °F 21.2 °F 32.0 °F 100% 29.86 in 1.8 mi West 16.1 mph - N/A   Overcast
3:54 AM 31.6 °F 21.2 °F 31.6 °F 100% 29.86 in 2.5 mi West 15.0 mph - N/A   Overcast
4:14 AM 31.5 °F 20.9 °F 31.1 °F 99% 29.86 in 3.0 mi West 15.0 mph 23.0 mph N/A   Overcast
4:33 AM 31.6 °F 22.1 °F 30.9 °F 97% 29.85 in 4.0 mi West 12.7 mph - N/A   Overcast
4:54 AM 31.6 °F 23.1 °F 30.4 °F 95% 29.84 in 5.0 mi West 10.4 mph - N/A   Mostly Cloudy
5:14 AM 30.7 °F 22.6 °F 29.8 °F 96% 29.84 in 5.0 mi West 9.2 mph - N/A   Scattered Clouds
5:33 AM 30.9 °F 22.8 °F 30.0 °F 96% 29.84 in 4.0 mi West 9.2 mph - N/A   Mostly Cloudy
5:54 AM 31.3 °F 22.7 °F 30.6 °F 97% 29.83 in 4.0 mi West 10.4 mph - N/A   Overcast
6:14 AM 30.9 °F 22.2 °F 30.0 °F 96% 29.83 in 4.0 mi West 10.4 mph - N/A   Scattered Clouds
6:34 AM 31.3 °F 22.1 °F 29.8 °F 94% 29.82 in 7.0 mi West 11.5 mph - N/A   Clear
6:54 AM 31.6 °F 20.7 °F 29.7 °F 92% 29.82 in 10.0 mi West 16.1 mph - N/A   Scattered Clouds
7:14 AM 32.0 °F 19.8 °F 29.1 °F 89% 29.82 in 10.0 mi West 20.7 mph - N/A   Overcast
7:34 AM 32.0 °F 19.8 °F 28.8 °F 88% 29.83 in 10.0 mi WNW 20.7 mph 26.5 mph N/A   Overcast
7:54 AM 32.0 °F 20.8 °F 28.9 °F 88% 29.84 in 7.0 mi WNW 17.3 mph 26.5 mph N/A   Overcast
8:14 AM 32.0 °F 21.6 °F 29.1 °F 89% 29.84 in 7.0 mi WNW 15.0 mph 23.0 mph N/A   Overcast
8:34 AM 32.0 °F 21.6 °F 29.3 °F 90% 29.84 in 7.0 mi WNW 15.0 mph 23.0 mph N/A   Overcast
8:54 AM 32.0 °F 20.8 °F 29.1 °F 89% 29.85 in 7.0 mi WNW 17.3 mph 24.2 mph N/A   Overcast
9:13 AM 32.2 °F 21.8 °F 29.1 °F 88% 29.85 in 7.0 mi WNW 15.0 mph 21.9 mph N/A   Overcast
9:34 AM 32.2 °F 21.8 °F 28.9 °F 88% 29.86 in 7.0 mi WNW 15.0 mph 23.0 mph N/A   Overcast
9:53 AM 32.4 °F 22.1 °F 28.8 °F 87% 29.87 in 10.0 mi West 15.0 mph 21.9 mph N/A   Overcast
10:02 AM 32.4 °F 22.5 °F 28.6 °F 86% 29.87 in 10.0 mi WNW 13.8 mph - N/A   Overcast
10:25 AM 32.0 °F 21.2 °F 26.6 °F 80% 29.88 in 10.0 mi NW 16.1 mph 26.5 mph N/A   Overcast
10:45 AM 33.8 °F 21.3 °F 26.6 °F 75% 29.88 in 10.0 mi WNW 24.2 mph 27.6 mph N/A   Overcast
11:05 AM 33.8 °F 21.9 °F 24.8 °F 70% 29.89 in 10.0 mi NW 21.9 mph 28.8 mph N/A   Mostly Cloudy
11:25 AM 33.8 °F 22.2 °F 24.8 °F 70% 29.90 in 10.0 mi NW 20.7 mph 32.2 mph N/A   Scattered Clouds
11:45 AM 32.0 °F 18.6 °F 23.0 °F 69% 29.90 in 10.0 mi NW 25.3 mph 34.5 mph N/A   Clear
12:05 PM 32.0 °F 18.6 °F 21.2 °F 64% 29.91 in 10.0 mi NW 25.3 mph 35.7 mph N/A   Clear
12:25 PM 32.0 °F 18.4 °F 23.0 °F 69% 29.92 in 10.0 mi NW 26.5 mph 29.9 mph N/A   Clear
12:45 PM 32.0 °F 18.6 °F 23.0 °F 69% 29.92 in 10.0 mi NW 25.3 mph 29.9 mph N/A   Clear
1:08 PM 32.0 °F 18.9 °F 21.2 °F 64% 29.93 in 10.0 mi NW 24.2 mph 31.1 mph N/A   Clear
1:14 PM 32.2 °F 20.0 °F 21.9 °F 66% 29.93 in 10.0 mi NW 20.7 mph 31.1 mph N/A   Clear
1:33 PM 32.0 °F 18.9 °F 20.5 °F 63% 29.94 in 10.0 mi NW 24.2 mph 31.1 mph N/A   Clear
1:54 PM 31.8 °F 19.3 °F 19.8 °F 61% 29.95 in 10.0 mi NW 21.9 mph 29.9 mph N/A   Clear
2:14 PM 31.6 °F 18.4 °F 19.0 °F 60% 29.95 in 10.0 mi NW 24.2 mph 31.1 mph N/A   Clear
2:34 PM 31.5 °F 18.5 °F 18.7 °F 59% 29.95 in 10.0 mi NW 23.0 mph 29.9 mph N/A   Clear
2:54 PM 31.5 °F 19.1 °F 18.9 °F 60% 29.96 in 10.0 mi NW 20.7 mph 27.6 mph N/A   Clear
3:13 PM 31.5 °F 19.1 °F 19.6 °F 62% 29.97 in 10.0 mi NW 20.7 mph - N/A   Clear
3:34 PM 31.3 °F 17.9 °F 18.5 °F 59% 29.96 in 10.0 mi NW 24.2 mph 32.2 mph N/A   Clear
3:54 PM 31.5 °F 19.1 °F 18.7 °F 59% 29.96 in 10.0 mi NW 20.7 mph 29.9 mph N/A   Clear
4:14 PM 31.6 °F 19.7 °F 19.9 °F 62% 29.97 in 10.0 mi NW 19.6 mph 27.6 mph N/A   Clear
4:34 PM 31.1 °F 18.6 °F 19.2 °F 61% 29.98 in 10.0 mi NW 20.7 mph 27.6 mph N/A   Clear
4:53 PM 30.9 °F 18.4 °F 18.3 °F 60% 29.98 in 10.0 mi NW 20.7 mph 29.9 mph N/A   Clear
5:14 PM 30.2 °F 17.1 °F 16.2 °F 56% 29.98 in 10.0 mi NW 21.9 mph 27.6 mph N/A   Clear
5:34 PM 30.2 °F 16.8 °F 18.7 °F 62% 29.99 in 10.0 mi NW 23.0 mph - N/A   Clear
5:53 PM 29.8 °F 16.6 °F 17.4 °F 60% 30.00 in 10.0 mi NW 21.9 mph 26.5 mph N/A   Clear
6:14 PM 29.3 °F 16.6 °F 16.7 °F 59% 30.01 in 10.0 mi NW 19.6 mph 26.5 mph N/A   Clear
6:34 PM 28.8 °F 15.2 °F 16.3 °F 60% 30.01 in 10.0 mi NW 21.9 mph 27.6 mph N/A   Clear
6:53 PM 28.4 °F 15.4 °F 16.9 °F 62% 30.02 in 10.0 mi NW 19.6 mph 26.5 mph N/A   Clear
7:05 PM 28.0 °F 15.7 °F 16.9 °F 63% 30.03 in 10.0 mi NW 17.3 mph 26.5 mph N/A   Clear
7:25 PM 26.6 °F 13.8 °F 15.8 °F 64% 30.04 in 10.0 mi NW 17.3 mph 24.2 mph N/A   Clear
7:45 PM 26.6 °F 13.1 °F 15.8 °F 64% 30.04 in 10.0 mi NW 19.6 mph 27.6 mph N/A   Clear
8:05 PM 24.8 °F 11.1 °F 15.8 °F 69% 30.05 in 10.0 mi NW 18.4 mph 26.5 mph N/A   Clear
9:05 PM 23.0 °F 8.7 °F 14.0 °F 68% 30.08 in 10.0 mi NW 18.4 mph 32.2 mph N/A   Clear
9:25 PM 23.0 °F 7.6 °F 14.0 °F 68% 30.09 in 10.0 mi NW 21.9 mph 28.8 mph N/A   Clear
9:45 PM 21.2 °F 6.4 °F 14.0 °F 74% 30.10 in 10.0 mi NW 18.4 mph 27.6 mph N/A   Clear
10:05 PM 21.2 °F 4.5 °F 14.0 °F 74% 30.11 in 10.0 mi NW 24.2 mph - N/A   Clear
10:25 PM 21.2 °F 4.9 °F 14.0 °F 74% 30.12 in 10.0 mi NW 23.0 mph 28.8 mph N/A   Clear
10:45 PM 21.2 °F 6.4 °F 14.0 °F 74% 30.12 in 10.0 mi NW 18.4 mph 28.8 mph N/A   Clear
11:05 PM 21.2 °F 5.6 °F 12.2 °F 68% 30.13 in 10.0 mi NW 20.7 mph 28.8 mph N/A   Clear
11:45 PM 19.4 °F 3.6 °F 12.2 °F 74% 30.13 in 10.0 mi NW 19.6 mph 26.5 mph N/A   Clear